| time (UTC) | temp F | wind direction | speed MPH | gust MPH | rain 1hr in | rain 24hr in | rain mn in | humidity % | barometer mb |
| 20260506224544 | 98 | 0.0 | 0.0 | 0.00 | 0.00 | 0.00 | 45 | 1010.8 | |
| 20260506221544 | 99 | 0.0 | 0.0 | 0.00 | 0.00 | 0.00 | 45 | 1010.5 | |
| 20260506214544 | 99 | 0.0 | 0.0 | 0.00 | 0.00 | 0.00 | 45 | 1010.4 | |
| 20260506211544 | 99 | 0.0 | 0.0 | 0.00 | 0.00 | 0.00 | 45 | 1010.4 | |
| 20260506204549 | 99 | 0.0 | 0.0 | 0.00 | 0.00 | 0.00 | 45 | 1010.4 | |
| 20260506201527 | 99 | 0.0 | 0.0 | 0.00 | 0.00 | 0.00 | 45 | 1010.3 | |
| 20260506194527 | 100 | 0.0 | 0.0 | 0.00 | 0.00 | 0.00 | 45 | 1010.4 | |
| 20260506191527 | 97 | 0.0 | 0.0 | 0.00 | 0.00 | 0.00 | 47 | 1010.5 | |
| 20260506184527 | 97 | 0.0 | 0.0 | 0.00 | 0.00 | 0.00 | 48 | 1010.9 | |
| 20260506181527 | 98 | 0.0 | 0.0 | 0.00 | 0.00 | 0.00 | 47 | 1010.9 | |
| 20260506174527 | 98 | 0.0 | 0.0 | 0.00 | 0.00 | 0.00 | 47 | 1011.2 | |
| 20260506171527 | 98 | 0.0 | 0.0 | 0.00 | 0.00 | 0.00 | 47 | 1011.2 | |
| 20260506164532 | 99 | 0.0 | 0.0 | 0.00 | 0.00 | 0.00 | 47 | 1011.2 | |
| 20260506161510 | 98 | 0.0 | 0.0 | 0.00 | 0.00 | 0.00 | 47 | 1011.6 | |
| 20260506154436 | 99 | 0.0 | 0.0 | 0.00 | 0.00 | 0.00 | 46 | 1011.4 | |
| 20260506151436 | 99 | 0.0 | 0.0 | 0.00 | 0.00 | 0.00 | 45 | 1011.4 | |
| 20260506144436 | 99 | 0.0 | 0.0 | 0.00 | 0.00 | 0.00 | 45 | 1011.4 | |
| 20260506141436 | 100 | 0.0 | 0.0 | 0.00 | 0.00 | 0.00 | 44 | 1011.0 | |
| 20260506134436 | 101 | 0.0 | 0.0 | 0.00 | 0.00 | 0.00 | 43 | 1011.0 | |
| 20260506131311 | 100 | 0.0 | 0.0 | 0.00 | 0.00 | 0.00 | 43 | 1010.9 | |
| 20260506124311 | 101 | 0.0 | 0.0 | 0.00 | 0.00 | 0.00 | 42 | 1010.5 | |
| 20260506121311 | 102 | 0.0 | 0.0 | 0.00 | 0.00 | 0.00 | 41 | 1010.0 | |
| 20260506114311 | 102 | 0.0 | 0.0 | 0.00 | 0.00 | 0.00 | 40 | 1009.5 | |
| 20260506111311 | 103 | 0.0 | 0.0 | 0.00 | 0.00 | 0.00 | 40 | 1008.9 | |
| 20260506104311 | 104 | 0.0 | 0.0 | 0.00 | 0.00 | 0.00 | 39 | 1008.7 | |
| 20260506101311 | 105 | 0.0 | 0.0 | 0.00 | 0.00 | 0.00 | 37 | 1008.4 | |
| 20260506094311 | 106 | 0.0 | 0.0 | 0.00 | 0.00 | 0.00 | 36 | 1008.1 | |
| 20260506091311 | 107 | 0.0 | 0.0 | 0.00 | 0.00 | 0.00 | 35 | 1007.8 | |
| 20260506084311 | 113 | 0.0 | 0.0 | 0.00 | 0.00 | 0.00 | 31 | 1007.6 | |
| 20260506081311 | 113 | 0.0 | 0.0 | 0.00 | 0.00 | 0.00 | 30 | 1007.7 | |
| 20260506071311 | 108 | 0.0 | 0.0 | 0.00 | 0.00 | 0.00 | 31 | 1007.9 | |
| 20260506061311 | 108 | 0.0 | 0.0 | 0.00 | 0.00 | 0.00 | 33 | 1009.0 | |
| 20260506051311 | 104 | 0.0 | 0.0 | 0.00 | 0.00 | 0.00 | 36 | 1010.1 | |
| 20260506044311 | 101 | 0.0 | 0.0 | 0.00 | 0.00 | 0.00 | 39 | 1010.4 | |
| 20260506041311 | 101 | 0.0 | 0.0 | 0.00 | 0.00 | 0.00 | 39 | 1010.9 | |
| 20260506034311 | 101 | 0.0 | 0.0 | 0.00 | 0.00 | 0.00 | 39 | 1011.4 | |
| 20260506031311 | 100 | 0.0 | 0.0 | 0.00 | 0.00 | 0.00 | 40 | 1011.6 | |
| 20260506024355 | 98 | 0.0 | 0.0 | 0.00 | 0.00 | 0.00 | 42 | 1011.7 | |
| 20260506021316 | 96 | 0.0 | 0.0 | 0.00 | 0.00 | 0.00 | 45 | 1012.0 | |
| 20260506014311 | 95 | 0.0 | 0.0 | 0.00 | 0.00 | 0.00 | 48 | 1012.0 | |
| 20260506011311 | 94 | 0.0 | 0.0 | 0.00 | 0.00 | 0.00 | 50 | 1012.1 | |
| 20260506001315 | 94 | 0.0 | 0.0 | 0.00 | 0.00 | 0.00 | 49 | 1011.9 | |
| 20260505234312 | 96 | 0.0 | 0.0 | 0.00 | 0.00 | 0.00 | 47 | 1011.7 | |
| 20260505231310 | 95 | 0.0 | 0.0 | 0.00 | 0.00 | 0.00 | 48 | 1011.5 |